Location: Kailua
(21.4020°N, 157.7390°W)
Time: 21:51:59
(UTC-10:00)

Cosmos 2221 Rocket - Visible Passes

Search period start: 23 April 2014 00:00
Search period end: 03 May 2014 00:00
Orbit: 622 x 650 km, 82.5° (Epoch: 23 April)

Date Brightness Start Highest point End Pass type
(mag) Time Alt. Az. Time Alt. Az. Time Alt. Az.
23 Apr 3.8 05:15:36 10° N 05:20:08 81° E 05:24:41 10° S visible
24 Apr 7.0 04:03:48 10° ENE 04:04:32 10° ENE 04:05:17 10° E visible
24 Apr 4.1 05:38:33 10° NNW 05:42:46 39° W 05:46:59 10° SSW visible
25 Apr 5.9 04:23:37 10° NNE 04:27:23 26° E 04:31:09 10° SE visible
26 Apr 4.1 04:45:37 10° N 04:50:07 65° E 04:54:38 10° SSE visible
27 Apr 3.8 05:08:23 10° NNW 05:12:46 48° W 05:17:08 10° SSW visible
28 Apr 6.1 03:53:54 10° NNE 03:57:20 21° E 04:00:45 10° SE visible
28 Apr 5.0 05:32:02 10° NW 05:35:18 20° W 05:38:35 10° SW visible
29 Apr 4.4 04:15:40 10° N 04:20:05 51° E 04:24:31 10° SSE visible
30 Apr 3.6 04:38:16 10° NNW 04:42:45 61° W 04:47:14 10° S visible
01 May 6.3 03:24:17 10° NE 03:27:15 17° E 03:30:13 10° ESE visible
01 May 4.7 05:01:39 10° NW 05:05:19 24° W 05:07:52 15° SW visible
02 May 4.8 03:45:44 10° NNE 03:50:02 41° E 03:51:29 31° SE visible
